{"data":{"norad_id":39416,"epoch":"2026-09-19T08:02:56.173632Z","epoch_age_seconds":114923,"freshness":"FRESH","line1":"1 39416U 13066A   26262.33537238  .00000809  00000+0  85233-4 0  9992","line2":"2 39416  97.7808 214.2569 0034105 258.8826 100.8558 14.91754967695263","mean_motion":14.91754967,"eccentricity":0.0034105,"inclination_deg":97.7808,"raan_deg":214.2569,"arg_perigee_deg":258.8826,"mean_anomaly_deg":100.8558,"bstar":8.5233e-5,"rev_number":69526,"period_min":96.530598647573,"perigee_km":568.69005121603,"apogee_km":616.23651574967,"semimajor_km":6970.6002834829,"source":"CELESTRAK","updated_at":"2026-09-20T09:00:47.444248Z"}}